Location: Windsor
(43.2292°N, 89.3015°W)
Time: 22:38:11
(UTC+00:00)

DIWATA 2B (PO-101) - Pass Details

Date: 30 June 2022
Orbit: 583 x 599 km, 98.0° (Epoch: 18 August)

Event Time Altitude Azimuth Distance (km) Brightness Sun altitude
Exits shadow 06:19:52 - 100° (E) 2,368 ? -23.5°
Reaches altitude 10° 06:22:06 10° 75° (ENE) 1,943 ? -23.4°
Maximum altitude 06:23:11 11° 60° (ENE) 1,888 ? -23.4°
Drops below altitude 10° 06:24:15 10° 45° (NE) 1,947 ? -23.4°
Sets 06:28:06 0° 9° (N) 2,857 ? -23.3°
